Find STARLINK-37554

NORAD ID: 799501014 Int'l Des: 2026-143Q Constellation: starlink operational

Current View

Loading 3D Globe...

About STARLINK-37554

STARLINK-37554 (NORAD 799501014) is a starlink constellation satellite launched Jun 12, 2026

About STARLINK-37554

Description loading...

Upcoming Passes

Passes for default location (London). Set your location on the main map for personalized predictions.

Altitude History

Loading altitude history...

Two-Line Element Set

1 99999C 2026143Q 26172.89979167 .00498470 00000-0 775170-4 0 1723
2 99999 97.2826 215.7338 0010855 275.1006 320.2964 16.03741927 17
Epoch: Jun 21, 2026 • Age: 8 hours